contact:dominique.lefevre@mio.osupytheas.fr, maurice.libes@osupytheas.fr, didier.mallarino@osupytheas.fr
Project:EMSO http://www.emso-fr.org/EMSO-France
Depth: 2436.0 m
Title:EMSO Ligure Ouest : Data MII capteur AQUADOPP
Date,Latitude,Longitude,X_East,Y_North,Z_Up,Amplitude_X,Amplitude_Y,Amplitude_Z,Batterie,SoundSpeed,Heading,Pitch,Roll,Pressure,TIS,Speed,Direction
, degrees North, degrees East, m.s-1, m.s-1,m.s-1, 1, 1, 1, Volt, m.s-1, degree, degree, degree, dbar, degree_C, m.s-1, degree
2022-06-03T00:04:03,42.805,6.029,0.015,-0.025,0.0,103.0,101.0,100.0,13.4,1505.2,320.5,-0.8,1.8,2471.012,13.28,0.029,149.0
2022-06-03T00:07:03,42.805,6.029,-0.012,-0.013,-0.01,103.0,103.0,101.0,13.3,1505.2,331.3,-0.7,1.8,2471.019,13.28,0.017,222.7
2022-06-03T00:10:03,42.805,6.029,-0.019,-0.007,-0.01,104.0,102.0,101.0,13.3,1505.2,326.9,-0.8,1.8,2470.971,13.28,0.02,249.8
2022-06-03T00:13:03,42.805,6.029,-0.032,-0.006,-0.041,102.0,101.0,102.0,13.3,1505.2,330.9,-0.7,1.8,2470.983,13.28,0.032,259.4
2022-06-03T00:16:03,42.805,6.029,-0.021,-0.021,-0.019,102.0,102.0,100.0,13.3,1505.2,327.5,-0.8,1.8,2471.01,13.28,0.029,225.0
2022-06-03T00:19:03,42.805,6.029,-0.033,-0.009,-0.028,102.0,103.0,101.0,13.3,1505.2,333.2,-0.8,1.8,2471.001,13.28,0.034,254.7
2022-06-03T00:22:03,42.805,6.029,-0.005,-0.012,-0.035,103.0,101.0,100.0,13.4,1505.2,326.4,-0.7,1.8,2470.919,13.28,0.013,202.6
2022-06-03T00:25:03,42.805,6.029,-0.032,-0.004,-0.027,103.0,104.0,100.0,13.4,1505.2,332.1,-0.8,1.8,2470.961,13.29,0.032,262.9
2022-06-03T00:28:03,42.805,6.029,-0.037,-0.009,-0.041,102.0,102.0,102.0,13.4,1505.2,324.1,-0.8,1.8,2470.958,13.29,0.038,256.3
2022-06-03T00:31:03,42.805,6.029,-0.022,-0.028,-0.024,102.0,105.0,100.0,13.4,1505.2,321.4,-0.7,1.8,2470.943,13.29,0.035,218.2
2022-06-03T00:34:03,42.805,6.029,-0.044,-0.016,-0.013,104.0,102.0,101.0,13.4,1505.2,328.4,-0.7,1.8,2470.951,13.29,0.046,250.0
2022-06-03T00:37:03,42.805,6.029,-0.04,-0.014,-0.006,104.0,103.0,101.0,13.3,1505.2,328.5,-0.7,1.8,2470.947,13.28,0.042,250.7
2022-06-03T00:40:03,42.805,6.029,-0.019,-0.011,-0.02,104.0,101.0,102.0,13.3,1505.2,323.4,-0.8,1.8,2470.937,13.29,0.021,239.9
2022-06-03T00:43:03,42.805,6.029,-0.044,-0.02,-0.059,102.0,102.0,101.0,13.4,1505.2,328.4,-0.8,1.8,2470.94,13.29,0.048,245.6
2022-06-03T00:46:03,42.805,6.029,-0.021,-0.021,-0.021,102.0,103.0,101.0,13.3,1505.2,323.5,-0.8,1.8,2470.934,13.29,0.029,225.0
2022-06-03T00:49:03,42.805,6.029,-0.03,-0.008,-0.064,104.0,101.0,101.0,13.4,1505.2,324.5,-0.8,1.8,2470.949,13.29,0.031,255.1
2022-06-03T00:52:03,42.805,6.029,-0.016,-0.021,-0.036,103.0,104.0,101.0,13.4,1505.2,325.3,-0.7,1.8,2470.929,13.29,0.026,217.3
2022-06-03T00:55:03,42.805,6.029,-0.02,0.006,-0.003,103.0,103.0,101.0,13.4,1505.2,327.3,-0.7,1.8,2470.977,13.29,0.02,286.7
2022-06-03T00:58:03,42.805,6.029,-0.033,-0.027,-0.027,105.0,102.0,101.0,13.4,1505.2,322.2,-0.8,1.8,2470.924,13.29,0.042,230.7
2022-06-03T01:04:03,42.805,6.029,-0.016,-0.021,-0.038,104.0,104.0,101.0,13.4,1505.2,332.4,-0.7,1.8,2470.962,13.28,0.026,217.3
2022-06-03T01:07:02,42.805,6.029,-0.019,-0.014,-0.034,105.0,102.0,101.0,13.4,1505.2,325.1,-0.8,1.8,2470.987,13.28,0.023,233.6
2022-06-03T01:10:03,42.805,6.029,-0.033,-0.016,-0.015,103.0,103.0,102.0,13.4,1505.2,332.3,-0.7,1.8,2470.966,13.28,0.036,244.1
2022-06-03T01:13:03,42.805,6.029,-0.005,-0.019,-0.028,104.0,104.0,101.0,13.3,1505.2,332.1,-0.8,1.8,2470.928,13.28,0.019,194.7
2022-06-03T01:16:03,42.805,6.029,-0.015,-0.011,-0.024,102.0,103.0,100.0,13.3,1505.2,327.6,-0.8,1.8,2470.954,13.28,0.018,233.7
2022-06-03T01:19:03,42.805,6.029,-0.031,-0.012,-0.025,103.0,102.0,101.0,13.4,1505.2,328.1,-0.7,1.8,2470.927,13.28,0.033,248.8
2022-06-03T01:22:03,42.805,6.029,-0.015,0.011,-0.006,103.0,102.0,101.0,13.4,1505.2,332.5,-0.8,1.8,2470.92,13.29,0.018,306.3
2022-06-03T01:25:03,42.805,6.029,-0.013,0.002,-0.013,103.0,103.0,101.0,13.4,1505.2,329.0,-0.7,1.8,2470.91,13.29,0.013,278.7
2022-06-03T01:28:03,42.805,6.029,-0.012,0.007,0.013,103.0,104.0,102.0,13.4,1505.2,328.2,-0.8,1.8,2470.92,13.29,0.013,300.3
2022-06-03T01:31:03,42.805,6.029,-0.015,-0.005,-0.008,103.0,102.0,102.0,13.4,1505.2,330.3,-0.8,1.8,2470.945,13.29,0.015,251.6
2022-06-03T01:34:03,42.805,6.029,-0.017,-0.016,-0.025,103.0,103.0,102.0,13.4,1505.2,330.7,-0.7,1.8,2470.909,13.29,0.023,226.7
2022-06-03T01:37:03,42.805,6.029,-0.021,-0.008,-0.007,101.0,103.0,102.0,13.4,1505.2,333.2,-0.8,1.8,2470.928,13.29,0.022,249.1
2022-06-03T01:40:03,42.805,6.029,-0.026,0.007,-0.025,104.0,103.0,101.0,13.4,1505.2,328.4,-0.7,1.8,2470.914,13.29,0.026,285.1
2022-06-03T01:43:03,42.805,6.029,-0.018,0.001,-0.004,103.0,103.0,102.0,13.4,1505.2,330.5,-0.8,1.8,2470.93,13.29,0.018,273.2
2022-06-03T01:46:03,42.805,6.029,-0.036,-0.001,-0.034,104.0,101.0,101.0,13.4,1505.2,332.9,-0.7,1.8,2470.896,13.29,0.036,268.4
2022-06-03T01:49:03,42.805,6.029,-0.024,0.007,-0.002,102.0,103.0,100.0,13.4,1505.2,332.1,-0.8,1.8,2470.942,13.29,0.025,286.3
2022-06-03T01:52:03,42.805,6.029,-0.033,0.001,-0.029,102.0,102.0,100.0,13.4,1505.2,333.0,-0.7,1.8,2470.909,13.29,0.033,271.7
2022-06-03T01:55:03,42.805,6.029,-0.036,-0.005,-0.037,103.0,101.0,100.0,13.4,1505.2,327.3,-0.8,1.9,2470.934,13.29,0.036,262.1
2022-06-03T01:58:03,42.805,6.029,-0.04,-0.005,-0.012,103.0,101.0,102.0,13.4,1505.2,323.5,-0.8,1.8,2470.916,13.29,0.04,262.9
2022-06-03T02:04:03,42.805,6.029,-0.032,-0.01,-0.028,103.0,101.0,102.0,13.3,1505.2,324.7,-0.7,1.8,2470.914,13.28,0.033,252.6
2022-06-03T02:07:03,42.805,6.029,-0.023,-0.003,-0.05,101.0,103.0,103.0,13.3,1505.2,327.8,-0.8,1.8,2470.983,13.28,0.023,262.6
2022-06-03T02:10:03,42.805,6.029,-0.055,0.0,0.003,103.0,102.0,100.0,13.3,1505.2,329.5,-0.8,1.9,2470.923,13.28,0.055,270.0
2022-06-03T02:13:03,42.805,6.029,-0.029,0.013,-0.025,103.0,101.0,101.0,13.4,1505.2,324.9,-0.8,1.8,2470.954,13.28,0.031,294.1
2022-06-03T02:16:03,42.805,6.029,-0.032,0.004,-0.042,105.0,101.0,100.0,13.4,1505.2,323.7,-0.8,1.8,2470.902,13.28,0.032,277.1
2022-06-03T02:19:03,42.805,6.029,-0.025,-0.019,-0.015,104.0,102.0,101.0,13.4,1505.2,324.4,-0.8,1.8,2470.943,13.29,0.031,232.8
2022-06-03T02:22:03,42.805,6.029,-0.021,0.01,-0.01,103.0,103.0,102.0,13.4,1505.2,328.7,-0.7,1.8,2470.89,13.29,0.023,295.5
2022-06-03T02:25:03,42.805,6.029,-0.028,-0.005,-0.017,101.0,104.0,100.0,13.4,1505.2,325.0,-0.7,1.8,2470.917,13.29,0.028,259.9
2022-06-03T02:28:03,42.805,6.029,-0.033,0.002,0.005,102.0,102.0,101.0,13.4,1505.2,327.6,-0.8,1.8,2470.901,13.29,0.033,273.5
2022-06-03T02:31:03,42.805,6.029,-0.048,-0.011,-0.034,101.0,103.0,102.0,13.3,1505.2,333.2,-0.8,1.8,2470.901,13.29,0.049,257.1
2022-06-03T02:34:03,42.805,6.029,-0.037,-0.014,-0.024,102.0,102.0,100.0,13.4,1505.2,324.6,-0.7,1.8,2470.901,13.28,0.039,249.3
2022-06-03T02:37:03,42.805,6.029,-0.025,-0.017,-0.035,104.0,101.0,100.0,13.3,1505.2,332.7,-0.8,1.8,2470.887,13.29,0.03,235.8
2022-06-03T02:40:03,42.805,6.029,-0.033,-0.001,-0.031,102.0,101.0,101.0,13.4,1505.2,322.8,-0.8,1.9,2470.867,13.29,0.033,268.3
2022-06-03T02:43:03,42.805,6.029,-0.026,0.007,-0.028,102.0,101.0,101.0,13.4,1505.2,333.2,-0.8,1.8,2470.871,13.28,0.026,285.1
2022-06-03T02:46:03,42.805,6.029,-0.045,0.0,-0.013,104.0,101.0,100.0,13.4,1505.2,321.6,-0.7,1.8,2470.892,13.29,0.045,270.0
2022-06-03T02:49:03,42.805,6.029,-0.038,-0.005,-0.012,104.0,102.0,100.0,13.4,1505.2,328.7,-0.8,1.8,2470.862,13.29,0.038,262.5
2022-06-03T02:52:03,42.805,6.029,-0.026,-0.009,-0.037,102.0,102.0,101.0,13.4,1505.2,331.2,-0.8,1.8,2470.907,13.28,0.027,250.9
2022-06-03T02:55:03,42.805,6.029,-0.009,0.002,-0.048,103.0,101.0,101.0,13.4,1505.2,329.8,-0.8,1.8,2470.885,13.29,0.009,282.5
2022-06-03T02:58:03,42.805,6.029,-0.018,0.006,-0.01,102.0,104.0,101.0,13.4,1505.2,331.6,-0.7,1.9,2470.921,13.28,0.018,288.4
2022-06-03T03:04:03,42.805,6.029,-0.029,-0.02,-0.025,103.0,104.0,102.0,13.3,1505.2,331.4,-0.8,1.8,2470.964,13.28,0.035,235.4
2022-06-03T03:07:03,42.805,6.029,-0.044,0.001,-0.032,103.0,102.0,100.0,13.4,1505.2,327.3,-0.7,1.8,2470.901,13.28,0.044,271.3
2022-06-03T03:10:03,42.805,6.029,-0.038,0.0,0.002,102.0,100.0,101.0,13.4,1505.2,323.1,-0.8,1.8,2470.953,13.28,0.038,270.0
2022-06-03T03:13:03,42.805,6.029,-0.031,-0.001,-0.011,102.0,102.0,100.0,13.3,1505.2,329.1,-0.7,1.8,2470.892,13.28,0.031,268.2
2022-06-03T03:16:03,42.805,6.029,-0.021,-0.024,-0.06,102.0,102.0,102.0,13.3,1505.2,324.5,-0.7,1.8,2470.899,13.28,0.031,221.2
2022-06-03T03:19:03,42.805,6.029,-0.024,-0.009,-0.009,104.0,102.0,100.0,13.3,1505.2,333.0,-0.8,1.8,2470.891,13.28,0.025,249.4
2022-06-03T03:22:03,42.805,6.029,-0.026,0.001,0.015,102.0,102.0,101.0,13.3,1505.2,331.1,-0.8,1.8,2470.874,13.28,0.026,272.2
2022-06-03T03:25:03,42.805,6.029,-0.023,-0.016,-0.043,103.0,102.0,102.0,13.3,1505.2,323.9,-0.7,1.8,2470.898,13.29,0.028,235.2
2022-06-03T03:28:03,42.805,6.029,-0.001,-0.01,-0.005,102.0,103.0,101.0,13.4,1505.2,319.9,-0.7,1.8,2470.921,13.29,0.01,185.7
2022-06-03T03:31:03,42.805,6.029,-0.012,-0.015,-0.014,103.0,104.0,100.0,13.3,1505.2,332.3,-0.8,1.8,2470.858,13.29,0.019,218.7
2022-06-03T03:34:03,42.805,6.029,-0.021,0.002,-0.014,104.0,103.0,101.0,13.4,1505.2,323.8,-0.8,1.8,2470.882,13.29,0.021,275.4
2022-06-03T03:37:03,42.805,6.029,-0.024,0.003,-0.005,102.0,102.0,101.0,13.3,1505.2,323.7,-0.8,1.8,2470.872,13.29,0.024,277.1
2022-06-03T03:40:03,42.805,6.029,-0.025,0.0,-0.014,103.0,103.0,102.0,13.3,1505.2,326.1,-0.7,1.8,2470.848,13.29,0.025,270.0
2022-06-03T03:43:03,42.805,6.029,0.002,0.0,-0.02,101.0,102.0,100.0,13.4,1505.2,322.7,-0.8,1.8,2470.859,13.29,0.002,90.0
2022-06-03T03:46:03,42.805,6.029,-0.035,-0.004,-0.019,103.0,104.0,100.0,13.4,1505.2,323.6,-0.8,1.8,2470.928,13.29,0.035,263.5
2022-06-03T03:49:03,42.805,6.029,-0.044,0.011,0.004,103.0,101.0,101.0,13.4,1505.2,332.3,-0.8,1.8,2470.842,13.29,0.045,284.0
2022-06-03T03:52:03,42.805,6.029,-0.024,0.0,-0.021,103.0,104.0,100.0,13.4,1505.2,325.2,-0.8,1.8,2470.899,13.29,0.024,270.0
2022-06-03T03:55:03,42.805,6.029,-0.022,-0.006,0.014,104.0,102.0,101.0,13.4,1505.2,329.2,-0.8,1.8,2470.89,13.29,0.022,254.7
2022-06-03T03:58:03,42.805,6.029,-0.035,0.001,-0.02,103.0,103.0,101.0,13.3,1505.2,332.1,-0.8,1.8,2470.854,13.29,0.035,271.6
2022-06-03T04:04:03,42.805,6.029,-0.015,-0.012,-0.005,103.0,102.0,101.0,13.4,1505.2,328.4,-0.8,1.8,2470.884,13.28,0.019,231.3
2022-06-03T04:07:03,42.805,6.029,-0.03,0.012,-0.014,103.0,103.0,101.0,13.4,1505.2,326.8,-0.8,1.8,2470.899,13.28,0.032,291.8
2022-06-03T04:10:03,42.805,6.029,-0.028,0.007,-0.026,101.0,104.0,102.0,13.4,1505.2,328.5,-0.7,1.8,2470.927,13.28,0.028,284.0
2022-06-03T04:13:03,42.805,6.029,-0.04,-0.003,-0.039,102.0,102.0,100.0,13.3,1505.2,325.0,-0.8,1.8,2470.942,13.28,0.04,265.7
2022-06-03T04:16:03,42.805,6.029,-0.046,0.005,-0.013,105.0,101.0,101.0,13.4,1505.2,324.2,-0.8,1.8,2470.857,13.28,0.046,276.2
2022-06-03T04:19:03,42.805,6.029,-0.025,-0.003,-0.015,103.0,102.0,100.0,13.3,1505.2,329.1,-0.7,1.8,2470.867,13.29,0.025,263.2
2022-06-03T04:22:03,42.805,6.029,-0.03,0.007,-0.024,104.0,103.0,100.0,13.3,1505.2,330.8,-0.7,1.9,2470.869,13.29,0.03,283.1
2022-06-03T04:25:03,42.805,6.029,-0.009,-0.01,-0.034,103.0,103.0,101.0,13.4,1505.2,327.9,-0.7,1.8,2470.858,13.29,0.013,222.0
2022-06-03T04:28:03,42.805,6.029,-0.03,-0.003,0.015,104.0,103.0,101.0,13.4,1505.2,322.2,-0.8,1.8,2470.893,13.29,0.03,264.3
2022-06-03T04:31:03,42.805,6.029,-0.015,0.002,0.01,104.0,102.0,102.0,13.4,1505.2,323.3,-0.7,1.8,2470.861,13.29,0.015,277.6
2022-06-03T04:34:03,42.805,6.029,-0.014,0.0,-0.021,103.0,104.0,101.0,13.4,1505.2,323.9,-0.8,1.8,2470.84,13.29,0.014,270.0
2022-06-03T04:37:03,42.805,6.029,-0.027,-0.006,-0.017,102.0,101.0,103.0,13.4,1505.2,324.2,-0.8,1.8,2470.875,13.29,0.027,257.5
2022-06-03T04:40:03,42.805,6.029,-0.014,0.001,-0.027,104.0,102.0,102.0,13.3,1505.2,327.9,-0.8,1.8,2470.926,13.29,0.014,274.1
2022-06-03T04:43:03,42.805,6.029,-0.026,0.001,-0.002,102.0,102.0,102.0,13.4,1505.2,327.6,-0.7,1.8,2470.884,13.29,0.026,272.2
2022-06-03T04:46:03,42.805,6.029,-0.034,0.008,-0.017,102.0,102.0,102.0,13.4,1505.2,322.7,-0.7,1.8,2470.876,13.29,0.034,283.2
2022-06-03T04:49:03,42.805,6.029,-0.035,-0.017,-0.003,104.0,102.0,100.0,13.3,1505.2,324.8,-0.8,1.8,2470.819,13.29,0.038,244.1
2022-06-03T04:52:03,42.805,6.029,-0.037,-0.009,-0.018,103.0,103.0,101.0,13.4,1505.2,321.0,-0.8,1.8,2470.871,13.29,0.038,256.3
2022-06-03T04:55:03,42.805,6.029,-0.031,0.006,0.009,103.0,102.0,101.0,13.4,1505.2,327.6,-0.8,1.8,2470.893,13.29,0.031,281.0
2022-06-03T04:58:03,42.805,6.029,-0.029,0.005,-0.031,104.0,102.0,101.0,13.4,1505.2,321.8,-0.7,1.8,2470.868,13.29,0.029,279.8
2022-06-03T05:04:03,42.805,6.029,-0.035,0.012,0.005,102.0,103.0,103.0,13.4,1505.2,323.8,-0.8,1.8,2470.918,13.28,0.037,288.9
2022-06-03T05:07:03,42.805,6.029,-0.036,0.004,-0.016,104.0,103.0,101.0,13.3,1505.2,327.5,-0.8,1.8,2470.899,13.28,0.036,276.3
2022-06-03T05:10:03,42.805,6.029,-0.03,0.007,-0.04,104.0,101.0,100.0,13.3,1505.2,322.9,-0.8,1.8,2470.908,13.28,0.03,283.1
2022-06-03T05:13:03,42.805,6.029,-0.03,-0.013,-0.008,103.0,103.0,101.0,13.4,1505.2,323.1,-0.8,1.8,2470.94,13.28,0.032,246.6
2022-06-03T05:16:03,42.805,6.029,-0.027,0.005,-0.038,104.0,103.0,102.0,13.4,1505.2,324.4,-0.7,1.8,2470.868,13.28,0.027,280.5
2022-06-03T05:19:03,42.805,6.029,0.006,0.026,-0.004,103.0,103.0,101.0,13.3,1505.2,325.3,-0.7,1.8,2470.92,13.29,0.026,13.0
2022-06-03T05:22:03,42.805,6.029,-0.031,0.0,-0.018,103.0,104.0,100.0,13.3,1505.2,326.5,-0.8,1.8,2470.884,13.29,0.03,270.0
2022-06-03T05:25:03,42.805,6.029,-0.038,0.014,0.009,106.0,103.0,101.0,13.4,1505.2,329.2,-0.7,1.9,2470.892,13.29,0.04,290.2
2022-06-03T05:28:03,42.805,6.029,-0.011,-0.003,-0.026,105.0,102.0,103.0,13.3,1505.2,321.6,-0.8,1.8,2470.871,13.29,0.011,254.7
2022-06-03T05:31:03,42.805,6.029,-0.035,0.008,-0.006,102.0,104.0,101.0,13.4,1505.2,324.7,-0.7,1.8,2470.9,13.29,0.035,282.9
2022-06-03T05:34:03,42.805,6.029,-0.032,0.029,-0.035,104.0,103.0,102.0,13.4,1505.2,329.6,-0.8,1.8,2470.875,13.29,0.043,312.2
2022-06-03T05:37:03,42.805,6.029,-0.021,0.004,0.004,104.0,103.0,102.0,13.4,1505.2,321.2,-0.8,1.8,2470.886,13.29,0.021,280.8
2022-06-03T05:40:03,42.805,6.029,-0.02,0.003,-0.004,104.0,104.0,103.0,13.3,1505.2,332.1,-0.8,1.8,2470.884,13.29,0.02,278.5
2022-06-03T05:43:03,42.805,6.029,-0.031,0.008,-0.017,105.0,102.0,101.0,13.3,1505.2,323.3,-0.7,1.8,2470.86,13.29,0.032,284.5
2022-06-03T05:46:03,42.805,6.029,-0.029,0.002,0.018,104.0,104.0,101.0,13.3,1505.2,331.2,-0.8,1.8,2470.893,13.29,0.029,273.9
2022-06-03T05:49:03,42.805,6.029,-0.021,0.018,-0.01,104.0,104.0,101.0,13.4,1505.2,329.1,-0.8,1.8,2470.89,13.29,0.027,310.6
2022-06-03T05:52:03,42.805,6.029,-0.029,0.006,-0.002,105.0,103.0,102.0,13.4,1505.2,326.1,-0.8,1.8,2470.9,13.29,0.029,281.7
2022-06-03T05:55:03,42.805,6.029,-0.048,0.007,0.007,105.0,103.0,101.0,13.4,1505.2,327.7,-0.8,1.8,2470.906,13.29,0.048,278.3
2022-06-03T05:58:03,42.805,6.029,-0.02,-0.001,-0.003,103.0,103.0,102.0,13.4,1505.2,325.5,-0.8,1.8,2470.844,13.29,0.02,267.1
2022-06-03T06:04:03,42.805,6.029,-0.032,-0.013,-0.023,104.0,102.0,102.0,13.4,1505.2,328.8,-0.8,1.8,2470.887,13.28,0.034,247.9
2022-06-03T06:07:03,42.805,6.029,-0.023,0.02,-0.015,102.0,104.0,101.0,13.4,1505.2,324.7,-0.7,1.8,2470.95,13.28,0.03,311.0
2022-06-03T06:10:03,42.805,6.029,-0.025,0.009,-0.013,102.0,104.0,102.0,13.4,1505.2,327.0,-0.8,1.8,2470.909,13.28,0.026,289.8
2022-06-03T06:13:03,42.805,6.029,-0.031,0.009,0.008,103.0,104.0,101.0,13.3,1505.2,323.1,-0.8,1.8,2470.95,13.29,0.032,286.2
2022-06-03T06:16:03,42.805,6.029,-0.021,0.015,-0.016,102.0,102.0,102.0,13.4,1505.2,324.7,-0.8,1.8,2470.934,13.29,0.025,305.5
2022-06-03T06:19:03,42.805,6.029,-0.045,0.025,0.019,103.0,103.0,103.0,13.4,1505.2,327.2,-0.8,1.8,2470.878,13.29,0.051,299.1
2022-06-03T06:22:03,42.805,6.029,-0.001,0.01,0.003,104.0,104.0,101.0,13.3,1505.2,329.2,-0.8,1.9,2470.898,13.29,0.01,354.3
2022-06-03T06:25:03,42.805,6.029,-0.011,-0.002,-0.032,104.0,103.0,101.0,13.4,1505.2,331.9,-0.7,1.8,2470.884,13.29,0.011,259.7
2022-06-03T06:28:03,42.805,6.029,-0.034,0.01,-0.006,103.0,104.0,102.0,13.4,1505.2,326.5,-0.8,1.8,2470.925,13.29,0.035,286.4
2022-06-03T06:31:03,42.805,6.029,-0.025,0.021,-0.005,104.0,104.0,100.0,13.3,1505.2,333.2,-0.8,1.8,2470.923,13.29,0.032,310.0
2022-06-03T06:34:03,42.805,6.029,-0.032,-0.006,-0.015,103.0,103.0,101.0,13.4,1505.2,325.5,-0.8,1.8,2470.899,13.29,0.032,259.4
2022-06-03T06:37:03,42.805,6.029,-0.044,0.014,-0.009,104.0,103.0,101.0,13.4,1505.2,321.5,-0.7,1.8,2470.89,13.29,0.046,287.6
2022-06-03T06:40:03,42.805,6.029,-0.015,0.009,-0.015,103.0,103.0,102.0,13.3,1505.2,328.6,-0.8,1.8,2470.875,13.29,0.017,301.0
2022-06-03T06:43:03,42.805,6.029,-0.048,0.021,-0.03,103.0,101.0,101.0,13.3,1505.2,325.3,-0.8,1.8,2470.903,13.29,0.052,293.6
2022-06-03T06:46:03,42.805,6.029,-0.031,-0.002,-0.031,104.0,103.0,100.0,13.4,1505.2,328.4,-0.8,1.8,2470.904,13.29,0.031,266.3
2022-06-03T06:49:03,42.805,6.029,-0.042,0.004,-0.023,103.0,105.0,101.0,13.4,1505.2,322.2,-0.7,1.8,2470.902,13.29,0.042,275.4
2022-06-03T06:52:03,42.805,6.029,-0.024,0.004,0.001,103.0,103.0,100.0,13.4,1505.2,320.3,-0.8,1.8,2470.888,13.29,0.024,279.5
2022-06-03T06:55:03,42.805,6.029,-0.017,0.016,0.006,103.0,103.0,101.0,13.4,1505.2,330.1,-0.8,1.8,2470.896,13.29,0.023,313.3
2022-06-03T06:58:03,42.805,6.029,-0.024,0.001,-0.021,103.0,102.0,102.0,13.4,1505.2,324.3,-0.8,1.8,2470.922,13.29,0.024,272.4
2022-06-03T07:04:03,42.805,6.029,-0.015,0.016,-0.021,102.0,102.0,101.0,13.4,1505.2,324.2,-0.8,1.8,2470.972,13.28,0.021,316.9
2022-06-03T07:07:03,42.805,6.029,-0.012,0.036,-0.029,103.0,103.0,103.0,13.4,1505.2,327.9,-0.7,1.8,2470.966,13.28,0.037,341.6
2022-06-03T07:10:03,42.805,6.029,-0.024,0.001,-0.01,103.0,105.0,103.0,13.4,1505.2,327.3,-0.7,1.8,2470.95,13.29,0.024,272.4
2022-06-03T07:13:03,42.805,6.029,-0.002,0.007,-0.024,103.0,102.0,100.0,13.3,1505.2,321.2,-0.8,1.8,2470.957,13.29,0.007,344.1
2022-06-03T07:16:03,42.805,6.029,-0.025,0.016,-0.015,103.0,103.0,101.0,13.3,1505.2,324.3,-0.8,1.8,2470.972,13.29,0.029,302.6
2022-06-03T07:19:03,42.805,6.029,-0.025,-0.003,-0.04,102.0,103.0,100.0,13.4,1505.2,321.8,-0.7,1.8,2470.945,13.29,0.025,263.2
2022-06-03T07:22:03,42.805,6.029,-0.03,0.001,-0.007,103.0,102.0,101.0,13.4,1505.2,326.0,-0.7,1.8,2470.938,13.29,0.03,271.9
2022-06-03T07:25:03,42.805,6.029,-0.005,0.018,0.0,103.0,101.0,101.0,13.3,1505.2,325.9,-0.8,1.8,2470.952,13.29,0.018,344.5
2022-06-03T07:28:03,42.805,6.029,-0.037,0.004,0.015,104.0,104.0,100.0,13.3,1505.2,322.4,-0.8,1.8,2470.932,13.29,0.037,276.2
2022-06-03T07:31:03,42.805,6.029,-0.019,-0.009,-0.038,101.0,103.0,102.0,13.4,1505.2,325.7,-0.8,1.8,2470.955,13.29,0.021,244.7
2022-06-03T07:34:03,42.805,6.029,-0.05,0.0,-0.037,103.0,104.0,100.0,13.3,1505.2,323.1,-0.8,1.9,2470.918,13.29,0.05,270.0
2022-06-03T07:37:03,42.805,6.029,-0.024,-0.026,-0.048,103.0,102.0,101.0,13.3,1505.2,323.7,-0.8,1.8,2470.928,13.29,0.035,222.7
2022-06-03T07:40:03,42.805,6.029,-0.032,-0.02,-0.024,104.0,103.0,101.0,13.4,1505.2,324.9,-0.8,1.8,2470.938,13.29,0.037,238.0
2022-06-03T07:43:03,42.805,6.029,-0.032,0.02,-0.013,103.0,102.0,102.0,13.4,1505.2,329.7,-0.8,1.8,2470.915,13.29,0.037,302.0
2022-06-03T07:46:03,42.805,6.029,-0.009,0.006,-0.026,103.0,102.0,102.0,13.4,1505.2,332.3,-0.7,1.8,2470.946,13.29,0.01,303.7
2022-06-03T07:49:03,42.805,6.029,-0.024,0.008,-0.015,104.0,102.0,102.0,13.4,1505.2,332.1,-0.8,1.8,2470.924,13.29,0.025,288.4
2022-06-03T07:52:03,42.805,6.029,-0.008,0.0,-0.021,103.0,104.0,102.0,13.3,1505.2,324.0,-0.7,1.8,2470.941,13.29,0.008,270.0
2022-06-03T07:55:03,42.805,6.029,-0.018,0.005,-0.022,104.0,103.0,101.0,13.4,1505.2,330.4,-0.7,1.8,2470.919,13.29,0.018,285.5
2022-06-03T07:58:03,42.805,6.029,0.003,0.016,0.026,102.0,103.0,102.0,13.3,1505.2,329.4,-0.8,1.8,2470.92,13.29,0.016,10.6
2022-06-03T08:04:03,42.805,6.029,-0.022,0.003,-0.005,104.0,103.0,101.0,13.3,1505.2,322.7,-0.8,1.8,2470.964,13.28,0.022,277.8
2022-06-03T08:07:03,42.805,6.029,-0.032,0.015,-0.015,104.0,103.0,100.0,13.4,1505.2,324.8,-0.8,1.8,2470.966,13.28,0.035,295.1
2022-06-03T08:10:03,42.805,6.029,-0.019,0.018,0.018,104.0,104.0,101.0,13.4,1505.2,328.5,-0.7,1.8,2470.969,13.29,0.026,313.5
2022-06-03T08:13:03,42.805,6.029,-0.017,-0.011,-0.012,103.0,103.0,101.0,13.4,1505.2,324.4,-0.8,1.8,2470.978,13.29,0.02,237.1
2022-06-03T08:16:03,42.805,6.029,-0.018,-0.005,-0.027,103.0,104.0,100.0,13.4,1505.2,327.7,-0.7,1.8,2470.97,13.29,0.018,254.5
2022-06-03T08:19:03,42.805,6.029,-0.04,0.006,-0.037,103.0,102.0,103.0,13.4,1505.2,330.0,-0.7,1.8,2470.923,13.29,0.04,278.5
2022-06-03T08:22:03,42.805,6.029,-0.011,-0.017,-0.004,104.0,102.0,102.0,13.4,1505.2,324.4,-0.7,1.8,2470.941,13.29,0.02,212.9
2022-06-03T08:25:03,42.805,6.029,-0.02,0.0,-0.008,103.0,103.0,101.0,13.4,1505.2,328.8,-0.8,1.8,2470.95,13.29,0.02,270.0
2022-06-03T08:28:03,42.805,6.029,-0.014,0.012,-0.036,105.0,104.0,101.0,13.4,1505.2,322.8,-0.7,1.8,2470.967,13.29,0.018,310.6
2022-06-03T08:31:03,42.805,6.029,-0.03,0.019,-0.035,104.0,103.0,101.0,13.3,1505.2,325.5,-0.7,1.8,2470.93,13.29,0.035,302.3
2022-06-03T08:34:03,42.805,6.029,-0.034,0.0,-0.023,103.0,102.0,101.0,13.3,1505.2,332.5,-0.7,1.8,2470.941,13.29,0.034,270.0
2022-06-03T08:37:03,42.805,6.029,-0.023,-0.003,-0.024,103.0,102.0,102.0,13.3,1505.2,322.4,-0.8,1.9,2470.939,13.29,0.023,262.6
2022-06-03T08:40:03,42.805,6.029,-0.033,0.01,0.006,103.0,103.0,102.0,13.4,1505.2,323.6,-0.7,1.8,2470.939,13.29,0.034,286.9
2022-06-03T08:43:03,42.805,6.029,-0.004,0.011,-0.02,104.0,103.0,101.0,13.3,1505.2,326.7,-0.7,1.8,2470.964,13.29,0.011,340.0
2022-06-03T08:46:03,42.805,6.029,-0.04,-0.005,-0.036,104.0,103.0,101.0,13.4,1505.2,332.3,-0.7,1.8,2470.943,13.29,0.04,262.9
2022-06-03T08:49:03,42.805,6.029,-0.033,0.012,-0.028,104.0,101.0,102.0,13.4,1505.2,327.2,-0.8,1.8,2470.897,13.29,0.035,290.0
2022-06-03T08:52:03,42.805,6.029,-0.022,0.005,-0.028,102.0,104.0,101.0,13.4,1505.2,329.1,-0.8,1.8,2470.979,13.29,0.022,282.8
2022-06-03T08:55:03,42.805,6.029,-0.034,0.0,-0.021,103.0,102.0,102.0,13.4,1505.2,329.7,-0.8,1.8,2470.929,13.29,0.034,270.0
2022-06-03T08:58:03,42.805,6.029,-0.025,0.001,-0.018,103.0,103.0,101.0,13.3,1505.2,321.4,-0.8,1.8,2470.902,13.29,0.025,272.3
2022-06-03T09:04:03,42.805,6.029,-0.05,0.0,-0.001,103.0,103.0,101.0,13.3,1505.2,320.7,-0.8,1.8,2470.972,13.28,0.05,270.0
2022-06-03T09:07:03,42.805,6.029,-0.018,0.002,0.001,104.0,103.0,101.0,13.4,1505.2,327.2,-0.8,1.8,2470.971,13.28,0.018,276.3
2022-06-03T09:10:03,42.805,6.029,-0.02,-0.005,0.0,102.0,104.0,102.0,13.3,1505.2,324.4,-0.8,1.8,2471.018,13.28,0.02,256.0
2022-06-03T09:13:03,42.805,6.029,-0.015,0.005,-0.008,104.0,102.0,101.0,13.4,1505.2,333.2,-0.8,1.8,2470.942,13.29,0.015,288.4
2022-06-03T09:16:03,42.805,6.029,-0.01,0.004,-0.034,103.0,105.0,101.0,13.4,1505.2,324.5,-0.8,1.8,2470.976,13.29,0.01,291.8
2022-06-03T09:19:03,42.805,6.029,-0.012,0.008,-0.056,104.0,102.0,101.0,13.3,1505.2,329.7,-0.8,1.8,2470.964,13.29,0.014,303.7
2022-06-03T09:22:03,42.805,6.029,-0.014,0.011,-0.013,105.0,103.0,101.0,13.3,1505.2,321.4,-0.8,1.8,2470.959,13.29,0.017,308.2
2022-06-03T09:25:03,42.805,6.029,-0.045,-0.006,-0.025,103.0,103.0,101.0,13.4,1505.2,321.6,-0.7,1.8,2470.915,13.29,0.045,262.4
2022-06-03T09:28:03,42.805,6.029,-0.009,0.003,-0.039,103.0,103.0,101.0,13.4,1505.2,321.6,-0.8,1.8,2470.982,13.29,0.009,288.4
2022-06-03T09:31:03,42.805,6.029,-0.026,-0.001,-0.017,102.0,104.0,101.0,13.4,1505.2,325.1,-0.8,1.8,2470.942,13.29,0.026,267.8
2022-06-03T09:34:03,42.805,6.029,-0.021,0.015,0.0,103.0,103.0,101.0,13.3,1505.2,332.7,-0.8,1.8,2470.94,13.29,0.025,305.5
2022-06-03T09:37:03,42.805,6.029,-0.022,0.004,-0.008,104.0,102.0,101.0,13.3,1505.2,325.6,-0.8,1.8,2470.953,13.29,0.022,280.3
2022-06-03T09:40:03,42.805,6.029,-0.02,0.009,-0.003,104.0,103.0,109.0,13.4,1505.2,328.7,-0.8,1.8,2470.921,13.29,0.021,294.2
2022-06-03T09:43:03,42.805,6.029,-0.036,0.003,0.003,102.0,103.0,100.0,13.4,1505.2,326.1,-0.8,1.8,2470.957,13.29,0.036,274.8
2022-06-03T09:46:03,42.805,6.029,-0.031,0.014,-0.027,104.0,103.0,100.0,13.4,1505.2,324.6,-0.8,1.8,2470.93,13.29,0.034,294.3
2022-06-03T09:49:03,42.805,6.029,-0.017,0.014,-0.005,103.0,106.0,101.0,13.4,1505.2,331.3,-0.7,1.8,2470.924,13.29,0.022,309.5
2022-06-03T09:52:03,42.805,6.029,-0.025,-0.002,0.003,103.0,103.0,104.0,13.4,1505.2,321.1,-0.8,1.8,2470.958,13.29,0.025,265.4